GAF741 EDDH-EDDH

Flight info

Callsign GAF741
Flight time 0h 2m
Altitude
Route
Aircraft H47

Departure

Time 2026-05-01 13:08
Airport Hamburg Helmut Schmidt Airport (EDDH)

Arrival

Time 2026-05-01 13:10
Airport Hamburg Helmut Schmidt Airport (EDDH)
Time Latitude Longitude Altitude Speed Heading
2026-05-01 13:07 53.62684 9.98133 95 ft 35 kts 234°
2026-05-01 13:07 53.62428 9.97595 317 ft 85 kts 238°
2026-05-01 13:07 53.61954 9.96672 595 ft 113 kts 235°
2026-05-01 13:08 53.61545 9.95542 1104 ft 112 kts 255°
2026-05-01 13:08 53.61621 9.94178 1367 ft 130 kts 294°
2026-05-01 13:08 53.62214 9.92982 1552 ft 140 kts 328°
2026-05-01 13:08 53.63106 9.92171 1487 ft 153 kts 340°
2026-05-01 13:09 53.64092 9.91412 1386 ft 157 kts 345°
2026-05-01 13:09 53.65042 9.91112 1747 ft 131 kts 13°
2026-05-01 13:09 53.66014 9.91155 1600 ft 144 kts 356°
2026-05-01 13:09 53.66943 9.90607 1312 ft 128 kts 348°
2026-05-01 13:10 53.67684 9.90179 1377 ft 95 kts 353°
2026-05-01 13:10 53.68212 9.89930 1398 ft 54 kts
2026-05-01 13:10 53.68446 9.89870 1209 ft 26 kts
2026-05-01 13:10 53.68595 9.90019 1051 ft 39 kts 71°
2026-05-01 13:11 53.68714 9.90838 1122 ft 101 kts 90°
2026-05-01 13:11 53.68831 9.92238 817 ft 142 kts 94°
2026-05-01 13:11 53.68742 9.93772 1079 ft 121 kts 116°
2026-05-01 13:11 53.68349 9.95064 911 ft 130 kts 136°
2026-05-01 13:12 53.67594 9.95945 578 ft 131 kts 163°
2026-05-01 13:12 53.66754 9.96491 422 ft 127 kts 166°
2026-05-01 13:12 53.66036 9.97028 307 ft 94 kts 162°
2026-05-01 13:12 53.65533 9.97438 246 ft 69 kts 161°
2026-05-01 13:13 53.65127 9.97774 281 ft 66 kts 159°
2026-05-01 13:13 53.64710 9.98211 271 ft 80 kts 153°
2026-05-01 13:13 53.64154 9.98705 197 ft 97 kts 160°
2026-05-01 13:13 53.63516 9.99200 169 ft 102 kts 159°
2026-05-01 13:14 53.62869 9.99762 382 ft 108 kts 162°
2026-05-01 13:14 53.62173 9.99393 543 ft 117 kts 228°
2026-05-01 13:14 53.61577 9.98460 650 ft 123 kts 220°
2026-05-01 13:14 53.60768 9.97800 839 ft 132 kts 204°
2026-05-01 13:15 53.59854 9.97487 1170 ft 140 kts 189°
2026-05-01 13:15 53.58969 9.96926 1638 ft 139 kts 215°
2026-05-01 13:15 53.58379 9.95606 1742 ft 150 kts 245°
2026-05-01 13:15 53.57855 9.94098 1991 ft 146 kts 245°
2026-05-01 13:16 53.57261 9.92745 2221 ft 144 kts 226°
2026-05-01 13:16 53.56540 9.91757 2685 ft 135 kts 231°
2026-05-01 13:16 53.56098 9.90161 2129 ft 177 kts 254°
2026-05-01 13:17 53.55183 9.84280 1423 ft 173 kts 270°
2026-05-01 13:17 53.55215 9.82274 1281 ft 165 kts 282°
2026-05-01 13:18 53.55668 9.78705 1211 ft 155 kts 285°
2026-05-01 13:18 53.55819 9.76902 1144 ft 149 kts 279°
2026-05-01 13:18 53.55897 9.75197 1252 ft 137 kts 279°
2026-05-01 13:18 53.56012 9.73631 1346 ft 134 kts 281°
2026-05-01 13:19 53.56119 9.72073 1424 ft 134 kts 279°
2026-05-01 13:19 53.56255 9.70553 1497 ft 135 kts 284°
2026-05-01 13:19 53.56682 9.67407 1580 ft 138 kts 291°
2026-05-01 13:20 53.57027 9.65873 1565 ft 141 kts 296°
2026-05-01 13:20 53.57418 9.64386 1618 ft 136 kts 297°
2026-05-01 13:20 53.57750 9.62992 1856 ft 122 kts 297°
2026-05-01 13:21 53.58812 9.61106 2076 ft 126 kts 329°
2026-05-01 13:21 53.59578 9.60139 1700 ft 149 kts 323°
2026-05-01 13:21 53.60381 9.58918 1268 ft 161 kts 319°
2026-05-01 13:21 53.61199 9.57671 678 ft 158 kts 327°
2026-05-01 13:22 53.61963 9.56657 681 ft 114 kts 332°
2026-05-01 13:22 53.62176 9.55947 714 ft 46 kts 227°
2026-05-01 13:22 53.61936 9.56172 389 ft 44 kts 144°
2026-05-01 13:22 53.61846 9.56538 247 ft 26 kts 129°
2026-05-01 13:23 53.61811 9.56764 145 ft 16 kts 126°
2026-05-01 13:23 53.61791 9.56872 56 ft 6 kts 118°
2026-05-01 13:23 53.61788 9.56912 25 ft 2 kts 118°
2026-05-01 13:23 53.61787 9.56930 14 ft 0 kts 106°
2026-05-01 13:24 53.61785 9.56953 17 ft 4 kts 76°
2026-05-01 13:25 53.61767 9.57070 45 ft 11 kts 241°
2026-05-01 13:25 53.61713 9.56967 59 ft 14 kts 249°
2026-05-01 13:25 53.61636 9.56802 71 ft 23 kts 246°
2026-05-01 13:25 53.61528 9.56565 50 ft 27 kts 247°
2026-05-01 13:26 53.61437 9.56359 34 ft 14 kts 247°
2026-05-01 13:26 53.61411 9.56304 18 ft 5 kts 232°
2026-05-01 13:26 53.61392 9.56291 25 ft 0 kts 219°
2026-05-01 13:26 53.61379 9.56286 14 ft 3 kts 217°
2026-05-01 13:27 53.61369 9.56285 15 ft 3 kts 212°
2026-05-01 13:27 53.61343 9.56257 34 ft 7 kts 268°
2026-05-01 13:27 53.61601 9.55479 171 ft 88 kts 315°
2026-05-01 13:28 53.62965 9.53856 105 ft 137 kts 334°
2026-05-01 13:28 53.63854 9.53178 82 ft 142 kts 341°
2026-05-01 13:29 53.65643 9.51721 64 ft 144 kts 332°
2026-05-01 13:29 53.67241 9.50163 627 ft 123 kts 328°
2026-05-01 13:30 53.67597 9.45415 830 ft 136 kts 284°
2026-05-01 13:31 53.67898 9.42131 509 ft 138 kts 284°
2026-05-01 13:31 53.68594 9.39278 252 ft 2 kts 267°
2026-05-01 13:32 53.68555 9.39010 36 ft 2 kts 286°
2026-05-01 13:33 53.68557 9.38993 29 ft 5 kts 278°
2026-05-01 13:33 53.69039 9.38793 632 ft 91 kts 337°
2026-05-01 13:34 53.70289 9.37416 746 ft 136 kts 310°
2026-05-01 13:34 53.71517 9.34966 43 ft 104 kts 321°
2026-05-01 13:35 53.72025 9.34294 6 ft 0 kts 349°